Regional Weather Roundup
Issued by NWS

Home | Current Version | Previous Version | Text Only | Print | Product List | Glossary Off
Versions: 1 2 3 4 5 6 7 8 9 10 11 12 13 14 15 16 17 18 19 20 21 22 23 24 25 26 27 28 29 30 31 32 33 34 35 36 37 38 39 40 41 42 43 44 45 46 47 48 49 50

000
ASUS43 KLSX 271159
RWRMO

WEATHER SUMMARY FOR MISSOURI
NATIONAL WEATHER SERVICE SPRINGFIELD MO
600 AM CST THU NOV 27 2014

NOTE: "FAIR" INDICATES FEW OR NO CLOUDS BELOW 12,000 FEET WITH NO
       SIGNIFICANT WEATHER AND/OR OBSTRUCTIONS TO VISIBILITY.
       CURRENT SKY AND/OR WEATHER CONDITIONS ARE NOT AVAILABLE FOR
       CHILLICOTHE AND FARMINGTON.

MOZ001>031-035>038-043-044-053-054-271300-
...NORTHERN AND WESTERN MISSOURI...

CITY           SKY/WX    TMP DP  RH WIND       PRES   REMARKS
KANSAS CTY INT CLOUDY    24  20  84 N9        30.48R WCI  14
6HR MIN TEMP:  24; 6HR MAX TEMP:  27;

KANSAS C DTWN  CLOUDY    27  20  75 N7        30.49R WCI  19
6HR MIN TEMP:  27; 6HR MAX TEMP:  29;

LEE`S SUMMIT   CLOUDY    26  20  77 N9        30.48R WCI  17
6HR MIN TEMP:  26; 6HR MAX TEMP:  28;

ST JOSEPH      CLOUDY    24  17  74 N13       30.50S WCI  12
6HR MIN TEMP:  24; 6HR MAX TEMP:  27;

CHILLICOTHE      N/A     27  20  75 NW6       30.49S WCI  20
6HR MIN TEMP:  27; 6HR MAX TEMP:  30;

KIRKSVILLE     CLOUDY    25  20  81 NW9       30.45R WCI  15
6HR MIN TEMP:  25; 6HR MAX TEMP:  30;


$$
MOZ066>068-077>081-088>096-101>105-271300-
...SOUTHWEST MISSOURI...

CITY           SKY/WX    TMP DP  RH WIND       PRES   REMARKS
SPRINGFIELD    CLOUDY    30  23  75 N9        30.44S WCI  22
6HR MIN TEMP:  29; 6HR MAX TEMP:  32;

JOPLIN         CLEAR     23  20  88 VRB3      30.48S
6HR MIN TEMP:  23; 6HR MAX TEMP:  32;


$$
MOZ032>034-039>042-045>050-055>058-069>072-271300-
...CENTRAL MISSOURI...

CITY           SKY/WX    TMP DP  RH WIND       PRES   REMARKS
COLUMBIA       CLOUDY    29  26  89 NW15G24   30.44R FOG     WCI  18
6HR MIN TEMP:  29; 6HR MAX TEMP:  33;

JEFFERSON CITY CLOUDY    31  26  82 NW12      30.46R WCI  22
6HR MIN TEMP:  31; 6HR MAX TEMP:  35;

ROLLA          CLOUDY    30  26  85 NW12      30.39R WCI  20
6HR MIN TEMP:  30; 6HR MAX TEMP:  31; 6HR PCP: TRACE;

SEDALIA        CLOUDY    28  24  85 N12       30.47S WCI  18
6HR MIN TEMP:  28; 6HR MAX TEMP:  32;

OSAGE BEACH    CLOUDY    30  25  80 NW7       30.44S WCI  23

$$
MOZ051-052-059>065-271300-
...EAST CENTRAL MISSOURI...

CITY           SKY/WX    TMP DP  RH WIND       PRES   REMARKS
ST LOUIS INTL  CLOUDY    30  24  78 NW9       30.41R WCI  22
6HR MIN TEMP:  30; 6HR MAX TEMP:  33; 6HR PCP: TRACE;

SPIRIT OF STL  CLOUDY    30  25  81 NW14      30.41R WCI  19
6HR MIN TEMP:  30; 6HR MAX TEMP:  33; 6HR PCP: TRACE;

ST CHARLES     CLOUDY    29  25  85 NW9       30.41R WCI  20
6HR MIN TEMP:  28; 6HR MAX TEMP:  31;


$$
MOZ072>076-082>087-097>100-106>115-271300-
...SOUTH CENTRAL AND SOUTHEAST MISSOURI...

CITY           SKY/WX    TMP DP  RH WIND       PRES   REMARKS
CAPE GIRARDEAU CLOUDY    34  30  85 N12       30.39R WCI  25
6HR MIN TEMP:  34; 6HR MAX TEMP:  38;

FARMINGTON     CLOUDY    30  27  86 NW10G22   30.38R WCI  21
6HR MIN TEMP:  30; 6HR MAX TEMP:  34;

POPLAR BLUFF   CLOUDY    35  30  82 N6        30.39R
6HR MIN TEMP:  35; 6HR MAX TEMP:  39; 6HR PCP: TRACE;

WEST PLAINS    CLOUDY    32  25  75 N9G20     30.41R WCI  24
6HR MIN TEMP:  31; 6HR MAX TEMP:  34;


$$


USA.gov is the U.S. government's official web portal to all federal, state and local government web resources and services.